When you browse on this site, cookies collect data to enhance your experience and personalize the content and advertising you see.
Visit our Privacy Policy to learn more. By continuing to use the site, you agree to this use of cookies and data.
  • Em Portugal
  • Lista de países
  • Para 7 dias
  • Temperatura da água
  • Mapas de satélite
  • Mapa do tempo
  • Widgets de tempo
  • user-avatar
    Iniciar Sessão

    Previsão horária em Burgas

    Hoje, 27 Maio, Segunda-feira

    Tempo Temperatura Precipitação Vento Pressão Humidade
    00:00 +19°C° 0 mm 1 m/s 761 mmHg 87%
    01:00 +18°C° 0 mm 1 m/s 761 mmHg 87%
    02:00 +18°C° 0 mm 1 m/s 760 mmHg 88%
    03:00 +18°C° 0 mm 1 m/s 760 mmHg 88%
    04:00 +18°C° 0 mm 1 m/s 760 mmHg 88%
    05:00 +18°C° 0 mm 1 m/s 760 mmHg 88%
    06:00 +20°C° 0 mm 1 m/s 760 mmHg 81%
    07:00 +22°C° 0 mm 1 m/s 761 mmHg 74%
    08:00 +24°C° 0 mm 1 m/s 761 mmHg 67%
    09:00 +25°C° 0 mm 2 m/s 761 mmHg 61%
    10:00 +26°C° 0 mm 3 m/s 760 mmHg 56%
    11:00 +28°C° 0 mm 4 m/s 760 mmHg 51%
    12:00 +28°C° 0 mm 4 m/s 760 mmHg 50%
    13:00 +28°C° 0 mm 5 m/s 760 mmHg 50%
    14:00 +28°C° 0 mm 5 m/s 760 mmHg 49%
    15:00 +27°C° 0 mm 5 m/s 759 mmHg 52%
    16:00 +26°C° 0 mm 5 m/s 759 mmHg 56%
    17:00 +25°C° 0 mm 5 m/s 759 mmHg 59%
    18:00 +22°C° 0 mm 4 m/s 759 mmHg 67%
    19:00 +20°C° 0 mm 4 m/s 759 mmHg 75%
    20:00 +18°C° 0 mm 3 m/s 759 mmHg 84%
    21:00 +17°C° 0 mm 3 m/s 759 mmHg 85%
    22:00 +17°C° 0 mm 2 m/s 759 mmHg 87%
    23:00 +16°C° 0 mm 2 m/s 759 mmHg 89%

    Amanhã, 28 Maio, Terça-feira

    Tempo Temperatura Precipitação Vento Pressão Humidade
    00:00 +16°C° 0 mm 2 m/s 759 mmHg 88%
    01:00 +16°C° 0 mm 2 m/s 758 mmHg 88%
    02:00 +16°C° 0 mm 1 m/s 758 mmHg 87%
    03:00 +16°C° 0 mm 1 m/s 758 mmHg 88%
    04:00 +16°C° 0 mm 1 m/s 758 mmHg 88%
    05:00 +16°C° 0 mm 1 m/s 757 mmHg 88%
    06:00 +19°C° 0 mm 1 m/s 757 mmHg 81%
    07:00 +20°C° 0 mm 2 m/s 757 mmHg 74%
    08:00 +23°C° 0 mm 2 m/s 757 mmHg 67%
    09:00 +25°C° 0 mm 2 m/s 757 mmHg 62%
    10:00 +27°C° 0 mm 3 m/s 757 mmHg 57%
    11:00 +29°C° 0 mm 3 m/s 757 mmHg 53%
    12:00 +30°C° 0 mm 4 m/s 756 mmHg 51%
    13:00 +30°C° 0 mm 4 m/s 756 mmHg 49%
    14:00 +32°C° 0 mm 4 m/s 756 mmHg 47%
    15:00 +32°C° 0 mm 4 m/s 755 mmHg 49%
    16:00 +30°C° 0 mm 4 m/s 755 mmHg 51%
    17:00 +30°C° 0 mm 4 m/s 754 mmHg 54%
    18:00 +27°C° 0 mm 3 m/s 754 mmHg 59%
    19:00 +25°C° 0 mm 3 m/s 754 mmHg 64%
    20:00 +22°C° 0 mm 3 m/s 754 mmHg 70%
    21:00 +21°C° 0 mm 3 m/s 755 mmHg 67%
    22:00 +20°C° 0 mm 3 m/s 755 mmHg 64%
    23:00 +19°C° 0 mm 3 m/s 755 mmHg 61%

    Depois de amanhã, 29 Maio, Quarta-feira

    Tempo Temperatura Precipitação Vento Pressão Humidade
    00:00 +19°C° 0 mm 3 m/s 755 mmHg 66%
    01:00 +18°C° 0 mm 3 m/s 755 mmHg 71%
    02:00 +17°C° 0 mm 3 m/s 755 mmHg 76%
    03:00 +17°C° 0 mm 3 m/s 755 mmHg 80%
    04:00 +17°C° 0 mm 3 m/s 755 mmHg 83%
    05:00 +17°C° 0 mm 3 m/s 755 mmHg 86%
    06:00 +19°C° 0 mm 3 m/s 756 mmHg 80%
    07:00 +21°C° 0 mm 3 m/s 756 mmHg 73%
    08:00 +23°C° 0 mm 4 m/s 756 mmHg 66%
    09:00 +26°C° 0 mm 4 m/s 756 mmHg 61%
    10:00 +28°C° 0 mm 3 m/s 756 mmHg 55%
    11:00 +29°C° 0 mm 3 m/s 756 mmHg 49%
    12:00 +30°C° 0 mm 3 m/s 756 mmHg 47%
    13:00 +31°C° 0 mm 3 m/s 756 mmHg 46%
    14:00 +31°C° 0 mm 3 m/s 756 mmHg 44%
    15:00 +31°C° 0 mm 3 m/s 756 mmHg 46%
    16:00 +30°C° 0 mm 3 m/s 756 mmHg 48%
    17:00 +30°C° 0 mm 3 m/s 755 mmHg 51%
    18:00 +28°C° 0 mm 3 m/s 756 mmHg 56%
    19:00 +26°C° 0 mm 3 m/s 756 mmHg 62%
    20:00 +22°C° 0 mm 3 m/s 756 mmHg 68%
    21:00 +21°C° 0 mm 3 m/s 756 mmHg 70%
    22:00 +20°C° 0 mm 2 m/s 757 mmHg 72%
    23:00 +19°C° 0 mm 2 m/s 757 mmHg 74%

    30 Maio, Quinta-feira

    Tempo Temperatura Precipitação Vento Pressão Humidade
    00:00 +18°C° 0 mm 2 m/s 757 mmHg 76%
    01:00 +19°C° 0 mm 1 m/s 757 mmHg 78%
    02:00 +18°C° 0 mm 1 m/s 757 mmHg 80%
    03:00 +18°C° 0 mm 1 m/s 757 mmHg 81%
    04:00 +18°C° 0 mm 1 m/s 757 mmHg 83%
    05:00 +16°C° 0 mm 1 m/s 757 mmHg 84%
    06:00 +19°C° 0 mm 2 m/s 757 mmHg 78%
    07:00 +21°C° 0 mm 2 m/s 757 mmHg 71%
    08:00 +24°C° 0 mm 2 m/s 757 mmHg 65%
    09:00 +26°C° 0 mm 1 m/s 757 mmHg 60%
    10:00 +28°C° 0 mm 1 m/s 757 mmHg 56%
    11:00 +30°C° 0 mm 1 m/s 757 mmHg 51%
    12:00 +30°C° 0 mm 1 m/s 757 mmHg 49%
    13:00 +31°C° 0 mm 2 m/s 757 mmHg 47%
    14:00 +31°C° 0 mm 3 m/s 757 mmHg 45%
    15:00 +30°C° 0 mm 3 m/s 756 mmHg 48%
    16:00 +30°C° 0 mm 3 m/s 756 mmHg 51%
    17:00 +29°C° 0 mm 3 m/s 756 mmHg 54%
    18:00 +27°C° 0 mm 3 m/s 756 mmHg 62%
    19:00 +25°C° 0 mm 2 m/s 756 mmHg 69%
    20:00 +23°C° 0 mm 2 m/s 756 mmHg 76%
    21:00 +21°C° 0 mm 2 m/s 756 mmHg 77%
    22:00 +20°C° 0 mm 2 m/s 757 mmHg 78%
    23:00 +20°C° 0 mm 1 m/s 757 mmHg 79%

    31 Maio, Sexta-feira

    Tempo Temperatura Precipitação Vento Pressão Humidade
    00:00 +20°C° 0 mm 1 m/s 757 mmHg 80%
    01:00 +19°C° 0 mm 1 m/s 756 mmHg 80%
    02:00 +19°C° 0 mm 1 m/s 756 mmHg 81%
    03:00 +18°C° 0 mm 1 m/s 756 mmHg 82%
    04:00 +18°C° 0 mm 1 m/s 756 mmHg 84%
    05:00 +17°C° 0 mm 2 m/s 756 mmHg 85%
    06:00 +19°C° 0 mm 2 m/s 756 mmHg 80%
    07:00 +21°C° 0 mm 2 m/s 756 mmHg 74%
    08:00 +24°C° 0 mm 2 m/s 756 mmHg 69%
    09:00 +25°C° 0 mm 2 m/s 756 mmHg 64%
    10:00 +26°C° 0 mm 2 m/s 756 mmHg 59%
    11:00 +28°C° 0 mm 2 m/s 756 mmHg 53%
    12:00 +28°C° 0.1 mm 2 m/s 756 mmHg 52%
    13:00 +29°C° 0.1 mm 3 m/s 756 mmHg 51%
    14:00 +29°C° 0.1 mm 3 m/s 755 mmHg 49%
    15:00 +28°C° 0.1 mm 3 m/s 755 mmHg 51%
    16:00 +28°C° 0.1 mm 3 m/s 755 mmHg 54%
    17:00 +27°C° 0.1 mm 4 m/s 755 mmHg 56%
    18:00 +25°C° 0.1 mm 3 m/s 755 mmHg 61%
    19:00 +23°C° 0.1 mm 2 m/s 755 mmHg 67%
    20:00 +20°C° 0.1 mm 2 m/s 755 mmHg 72%
    21:00 +20°C° 0 mm 2 m/s 755 mmHg 76%
    22:00 +19°C° 0 mm 2 m/s 755 mmHg 80%
    23:00 +18°C° 0 mm 2 m/s 755 mmHg 84%

    1 Junho, Sábado

    Tempo Temperatura Precipitação Vento Pressão Humidade
    00:00 +18°C° 0 mm 2 m/s 755 mmHg 87%
    01:00 +17°C° 0 mm 2 m/s 755 mmHg 90%
    02:00 +18°C° 0 mm 1 m/s 755 mmHg 93%
    03:00 +16°C° 0 mm 2 m/s 755 mmHg 93%
    04:00 +16°C° 0 mm 2 m/s 755 mmHg 93%
    05:00 +16°C° 0 mm 2 m/s 755 mmHg 93%
    06:00 +18°C° 0.1 mm 2 m/s 755 mmHg 86%
    07:00 +19°C° 0.1 mm 3 m/s 755 mmHg 78%
    08:00 +21°C° 0.1 mm 3 m/s 755 mmHg 71%
    09:00 +24°C° 0.1 mm 3 m/s 755 mmHg 66%
    10:00 +25°C° 0.1 mm 3 m/s 755 mmHg 61%
    11:00 +26°C° 0.1 mm 3 m/s 755 mmHg 56%
    12:00 +27°C° 1 mm 2 m/s 755 mmHg 56%
    13:00 +27°C° 1 mm 2 m/s 754 mmHg 55%
    14:00 +27°C° 1 mm 2 m/s 754 mmHg 55%
    15:00 +27°C° 0.4 mm 2 m/s 754 mmHg 57%
    16:00 +26°C° 0.4 mm 2 m/s 754 mmHg 60%
    17:00 +26°C° 0.4 mm 2 m/s 754 mmHg 62%
    18:00 +24°C° 0.6 mm 2 m/s 754 mmHg 68%
    19:00 +22°C° 0.6 mm 1 m/s 754 mmHg 73%
    20:00 +21°C° 0.6 mm 1 m/s 754 mmHg 79%
    21:00 +20°C° 0.5 mm 1 m/s 754 mmHg 82%
    22:00 +19°C° 0.5 mm 1 m/s 754 mmHg 84%
    23:00 +19°C° 0.5 mm 1 m/s 755 mmHg 87%
    Mostrar mais